Time,TemperatureF,DewpointF,PressureIn,WindDirection,WindDirectionDegrees,WindSpeedMPH,WindSpeedGustMPH,Humidity,HourlyPrecipIn,Conditions,Clouds,dailyrainin,SoftwareType,DateUTC
2013-03-18 00:02:00,34.0,31.0,29.85,East,82,5.0,10.0,90,0.03,,,0.15,,2013-03-18 05:02:00,
2013-03-18 00:12:00,34.0,31.0,29.85,East,82,5.0,10.0,90,0.03,,,0.15,,2013-03-18 05:12:00,
2013-03-18 00:22:00,34.0,31.0,29.85,East,82,5.0,10.0,90,0.03,,,0.15,,2013-03-18 05:22:00,
2013-03-18 00:32:00,34.0,32.0,29.82,ENE,60,4.0,9.0,91,0.03,,,0.17,,2013-03-18 05:32:00,
2013-03-18 00:43:00,34.0,32.0,29.82,ENE,60,4.0,9.0,91,0.03,,,0.17,,2013-03-18 05:43:00,
2013-03-18 00:52:00,34.0,32.0,29.82,ENE,60,4.0,9.0,91,0.03,,,0.17,,2013-03-18 05:52:00,
2013-03-18 01:02:00,34.0,32.0,29.81,ENE,66,5.0,14.0,91,0.03,,,0.18,,2013-03-18 06:02:00,
2013-03-18 01:12:00,34.0,32.0,29.81,ENE,66,5.0,14.0,91,0.03,,,0.18,,2013-03-18 06:12:00,
2013-03-18 01:22:00,34.0,32.0,29.81,ENE,66,5.0,14.0,91,0.03,,,0.18,,2013-03-18 06:22:00,
2013-03-18 01:32:00,35.0,32.0,29.80,East,83,8.0,13.0,90,0.03,,,0.20,,2013-03-18 06:32:00,
2013-03-18 01:42:00,35.0,32.0,29.80,East,83,8.0,13.0,90,0.03,,,0.20,,2013-03-18 06:42:00,
2013-03-18 01:52:00,35.0,32.0,29.80,East,83,8.0,13.0,90,0.03,,,0.20,,2013-03-18 06:52:00,
2013-03-18 02:02:00,35.0,32.0,29.76,ENE,69,13.0,17.0,90,0.03,,,0.21,,2013-03-18 07:02:00,
2013-03-18 02:12:00,35.0,32.0,29.76,ENE,69,13.0,17.0,90,0.03,,,0.21,,2013-03-18 07:12:00,
2013-03-18 02:22:00,35.0,32.0,29.76,ENE,69,13.0,17.0,90,0.03,,,0.21,,2013-03-18 07:22:00,
2013-03-18 02:32:00,35.0,32.0,29.75,ENE,62,9.0,15.0,90,0.02,,,0.22,,2013-03-18 07:32:00,
2013-03-18 02:43:00,35.0,32.0,29.75,ENE,62,9.0,15.0,90,0.02,,,0.22,,2013-03-18 07:43:00,
2013-03-18 02:53:00,35.0,32.0,29.75,ENE,62,9.0,15.0,90,0.02,,,0.22,,2013-03-18 07:53:00,
2013-03-18 03:02:00,35.0,32.0,29.72,ENE,68,10.0,19.0,90,0.02,,,0.23,,2013-03-18 08:02:00,
2013-03-18 03:12:00,35.0,32.0,29.72,ENE,68,10.0,19.0,90,0.02,,,0.23,,2013-03-18 08:12:00,
2013-03-18 03:22:00,35.0,32.0,29.72,ENE,68,10.0,19.0,90,0.02,,,0.23,,2013-03-18 08:22:00,
2013-03-18 03:32:00,35.0,33.0,29.70,ENE,76,7.0,15.0,91,0.02,,,0.24,,2013-03-18 08:32:00,
2013-03-18 03:43:00,35.0,33.0,29.70,ENE,76,7.0,15.0,91,0.02,,,0.24,,2013-03-18 08:43:00,
2013-03-18 03:53:00,35.0,33.0,29.70,ENE,76,7.0,15.0,91,0.02,,,0.24,,2013-03-18 08:53:00,
2013-03-18 04:02:00,35.0,33.0,29.70,ENE,57,3.0,10.0,91,0.01,,,0.24,,2013-03-18 09:02:00,
2013-03-18 04:12:00,35.0,33.0,29.70,ENE,57,3.0,10.0,91,0.01,,,0.24,,2013-03-18 09:12:00,
2013-03-18 04:22:00,35.0,33.0,29.70,ENE,57,3.0,10.0,91,0.01,,,0.24,,2013-03-18 09:22:00,
2013-03-18 04:33:00,35.0,33.0,29.68,ENE,58,6.0,10.0,91,0.01,,,0.25,,2013-03-18 09:33:00,
2013-03-18 04:43:00,35.0,33.0,29.68,ENE,58,6.0,10.0,91,0.01,,,0.25,,2013-03-18 09:43:00,
2013-03-18 04:53:00,35.0,33.0,29.68,ENE,58,6.0,10.0,91,0.01,,,0.25,,2013-03-18 09:53:00,
2013-03-18 05:03:00,35.0,33.0,29.67,NE,44,5.0,12.0,91,0.02,,,0.26,,2013-03-18 10:03:00,
2013-03-18 05:12:00,35.0,33.0,29.67,NE,44,5.0,12.0,91,0.02,,,0.26,,2013-03-18 10:12:00,
2013-03-18 05:23:00,35.0,33.0,29.67,NE,44,5.0,12.0,91,0.02,,,0.26,,2013-03-18 10:23:00,
2013-03-18 05:33:00,35.0,33.0,29.67,ENE,67,6.0,10.0,91,0.01,,,0.26,,2013-03-18 10:33:00,
2013-03-18 05:42:00,35.0,33.0,29.67,ENE,67,6.0,10.0,91,0.01,,,0.26,,2013-03-18 10:42:00,
2013-03-18 05:53:00,35.0,33.0,29.67,ENE,67,6.0,10.0,91,0.01,,,0.26,,2013-03-18 10:53:00,
2013-03-18 06:03:00,35.0,33.0,29.67,NE,56,3.0,6.0,91,0.01,,,0.27,,2013-03-18 11:03:00,
2013-03-18 06:13:00,35.0,33.0,29.67,NE,56,3.0,6.0,91,0.01,,,0.27,,2013-03-18 11:13:00,
2013-03-18 06:22:00,35.0,33.0,29.67,NE,56,3.0,6.0,91,0.01,,,0.27,,2013-03-18 11:22:00,
2013-03-18 06:32:00,35.0,33.0,29.67,ENE,62,1.0,3.0,92,0.01,,,0.27,,2013-03-18 11:32:00,
2013-03-18 06:43:00,35.0,33.0,29.67,ENE,62,1.0,3.0,92,0.01,,,0.27,,2013-03-18 11:43:00,
2013-03-18 06:52:00,35.0,33.0,29.67,ENE,62,1.0,3.0,92,0.01,,,0.27,,2013-03-18 11:52:00,
2013-03-18 07:02:00,35.0,33.0,29.66,ENE,73,2.0,5.0,92,0.01,,,0.28,,2013-03-18 12:02:00,
2013-03-18 07:12:00,35.0,33.0,29.66,ENE,73,2.0,5.0,92,0.01,,,0.28,,2013-03-18 12:12:00,
2013-03-18 07:22:00,35.0,33.0,29.66,ENE,73,2.0,5.0,92,0.01,,,0.28,,2013-03-18 12:22:00,
2013-03-18 07:32:00,35.0,33.0,29.66,ESE,112,0.0,3.0,92,0.01,,,0.28,,2013-03-18 12:32:00,
2013-03-18 07:43:00,35.0,33.0,29.66,ESE,112,0.0,3.0,92,0.01,,,0.28,,2013-03-18 12:43:00,
2013-03-18 07:52:00,35.0,33.0,29.66,ESE,112,0.0,3.0,92,0.01,,,0.28,,2013-03-18 12:52:00,
2013-03-18 08:02:00,35.0,33.0,29.67,ESE,112,0.0,2.0,92,0.00,,,0.28,,2013-03-18 13:02:00,
2013-03-18 08:12:00,35.0,33.0,29.67,ESE,112,0.0,2.0,92,0.00,,,0.28,,2013-03-18 13:12:00,
2013-03-18 08:22:00,35.0,33.0,29.67,ESE,112,0.0,2.0,92,0.00,,,0.28,,2013-03-18 13:22:00,
2013-03-18 08:33:00,36.0,34.0,29.66,ESE,112,1.0,2.0,93,0.01,,,0.29,,2013-03-18 13:33:00,
2013-03-18 08:42:00,36.0,34.0,29.66,ESE,112,1.0,2.0,93,0.01,,,0.29,,2013-03-18 13:42:00,
2013-03-18 08:52:00,36.0,34.0,29.66,ESE,112,1.0,2.0,93,0.01,,,0.29,,2013-03-18 13:52:00,
2013-03-18 09:02:00,36.0,34.0,29.65,ESE,112,0.0,1.0,93,0.01,,,0.29,,2013-03-18 14:02:00,
2013-03-18 09:12:00,36.0,34.0,29.65,ESE,112,0.0,1.0,93,0.01,,,0.29,,2013-03-18 14:12:00,
2013-03-18 09:22:00,36.0,34.0,29.65,ESE,112,0.0,1.0,93,0.01,,,0.29,,2013-03-18 14:22:00,
2013-03-18 09:32:00,36.0,34.0,29.65,ESE,112,0.0,2.0,93,0.01,,,0.30,,2013-03-18 14:32:00,
2013-03-18 09:42:00,36.0,34.0,29.65,ESE,112,0.0,2.0,93,0.01,,,0.30,,2013-03-18 14:42:00,
2013-03-18 09:52:00,36.0,34.0,29.65,ESE,112,0.0,2.0,93,0.01,,,0.30,,2013-03-18 14:52:00,
2013-03-18 10:02:00,37.0,35.0,29.66,SW,227,1.0,6.0,93,0.00,,,0.30,,2013-03-18 15:02:00,
2013-03-18 10:12:00,37.0,35.0,29.66,SW,227,1.0,6.0,93,0.00,,,0.30,,2013-03-18 15:12:00,
2013-03-18 10:22:00,37.0,35.0,29.66,SW,227,1.0,6.0,93,0.00,,,0.30,,2013-03-18 15:22:00,
2013-03-18 10:33:00,37.0,35.0,29.67,SSW,210,2.0,7.0,93,0.00,,,0.30,,2013-03-18 15:33:00,
2013-03-18 10:43:00,37.0,35.0,29.67,SSW,210,2.0,7.0,93,0.00,,,0.30,,2013-03-18 15:43:00,
2013-03-18 10:52:00,37.0,35.0,29.67,SSW,210,2.0,7.0,93,0.00,,,0.30,,2013-03-18 15:52:00,
2013-03-18 11:03:00,38.0,36.0,29.67,WSW,247,5.0,11.0,93,0.00,,,0.30,,2013-03-18 16:03:00,
2013-03-18 11:12:00,38.0,36.0,29.67,WSW,247,5.0,11.0,93,0.00,,,0.30,,2013-03-18 16:12:00,
2013-03-18 11:22:00,38.0,36.0,29.67,WSW,247,5.0,11.0,93,0.00,,,0.30,,2013-03-18 16:22:00,
2013-03-18 11:32:00,38.0,36.0,29.67,NW,306,7.0,11.0,91,0.00,,,0.30,,2013-03-18 16:32:00,
2013-03-18 11:42:00,38.0,36.0,29.67,NW,306,7.0,11.0,91,0.00,,,0.30,,2013-03-18 16:42:00,
2013-03-18 11:53:00,38.0,36.0,29.67,NW,306,7.0,11.0,91,0.00,,,0.30,,2013-03-18 16:53:00,
2013-03-18 12:02:00,39.0,36.0,29.68,WSW,253,7.0,13.0,90,0.00,,,0.30,,2013-03-18 17:02:00,
2013-03-18 12:12:00,39.0,36.0,29.68,WSW,253,7.0,13.0,90,0.00,,,0.30,,2013-03-18 17:12:00,
2013-03-18 12:22:00,39.0,36.0,29.68,WSW,253,7.0,13.0,90,0.00,,,0.30,,2013-03-18 17:22:00,
2013-03-18 12:32:00,39.0,36.0,29.70,West,262,8.0,15.0,88,0.00,,,0.30,,2013-03-18 17:32:00,
2013-03-18 12:43:00,39.0,36.0,29.70,West,262,8.0,15.0,88,0.00,,,0.30,,2013-03-18 17:43:00,
2013-03-18 12:52:00,39.0,36.0,29.70,West,262,8.0,15.0,88,0.00,,,0.30,,2013-03-18 17:52:00,
2013-03-18 13:02:00,39.0,35.0,29.72,SW,233,9.0,16.0,86,0.00,,,0.30,,2013-03-18 18:02:00,
2013-03-18 13:12:00,39.0,35.0,29.72,SW,233,9.0,16.0,86,0.00,,,0.30,,2013-03-18 18:12:00,
2013-03-18 13:22:00,39.0,35.0,29.72,SW,233,9.0,16.0,86,0.00,,,0.30,,2013-03-18 18:22:00,
2013-03-18 13:32:00,39.0,35.0,29.72,WSW,247,8.0,17.0,85,0.00,,,0.30,,2013-03-18 18:32:00,
2013-03-18 13:42:00,39.0,35.0,29.72,WSW,247,8.0,17.0,85,0.00,,,0.30,,2013-03-18 18:42:00,
2013-03-18 13:52:00,39.0,35.0,29.72,WSW,247,8.0,17.0,85,0.00,,,0.30,,2013-03-18 18:52:00,
2013-03-18 14:02:00,39.0,35.0,29.72,West,273,10.0,18.0,85,0.00,,,0.30,,2013-03-18 19:02:00,
2013-03-18 14:12:00,39.0,35.0,29.72,West,273,10.0,18.0,85,0.00,,,0.30,,2013-03-18 19:12:00,
2013-03-18 14:22:00,39.0,35.0,29.72,West,273,10.0,18.0,85,0.00,,,0.30,,2013-03-18 19:22:00,
2013-03-18 14:33:00,39.0,35.0,29.72,West,264,9.0,17.0,85,0.00,,,0.30,,2013-03-18 19:33:00,
2013-03-18 14:42:00,39.0,35.0,29.72,West,264,9.0,17.0,85,0.00,,,0.30,,2013-03-18 19:42:00,
2013-03-18 14:52:00,39.0,35.0,29.72,West,264,9.0,17.0,85,0.00,,,0.30,,2013-03-18 19:52:00,
2013-03-18 15:02:00,39.0,35.0,29.72,SW,220,8.0,13.0,85,0.00,,,0.30,,2013-03-18 20:02:00,
2013-03-18 15:12:00,39.0,35.0,29.72,SW,220,8.0,13.0,85,0.00,,,0.30,,2013-03-18 20:12:00,
2013-03-18 15:23:00,39.0,35.0,29.72,SW,220,8.0,13.0,85,0.00,,,0.30,,2013-03-18 20:23:00,
2013-03-18 15:33:00,41.0,37.0,29.72,West,260,9.0,15.0,84,0.00,,,0.30,,2013-03-18 20:33:00,
2013-03-18 15:43:00,41.0,37.0,29.72,West,260,9.0,15.0,84,0.00,,,0.30,,2013-03-18 20:43:00,
2013-03-18 15:52:00,41.0,37.0,29.72,West,260,9.0,15.0,84,0.00,,,0.30,,2013-03-18 20:52:00,
2013-03-18 16:02:00,41.0,36.0,29.73,West,274,8.0,15.0,83,0.00,,,0.30,,2013-03-18 21:02:00,
2013-03-18 16:12:00,41.0,36.0,29.73,West,274,8.0,15.0,83,0.00,,,0.30,,2013-03-18 21:12:00,
2013-03-18 16:22:00,41.0,36.0,29.73,West,274,8.0,15.0,83,0.00,,,0.30,,2013-03-18 21:22:00,
2013-03-18 16:32:00,41.0,36.0,29.74,WSW,249,8.0,18.0,82,0.00,,,0.30,,2013-03-18 21:32:00,
2013-03-18 16:43:00,41.0,36.0,29.74,WSW,249,8.0,18.0,82,0.00,,,0.30,,2013-03-18 21:43:00,
2013-03-18 16:53:00,41.0,36.0,29.74,WSW,249,8.0,18.0,82,0.00,,,0.30,,2013-03-18 21:53:00,
2013-03-18 17:03:00,41.0,36.0,29.75,West,277,8.0,14.0,82,0.00,,,0.30,,2013-03-18 22:03:00,
2013-03-18 17:13:00,41.0,36.0,29.75,West,277,8.0,14.0,82,0.00,,,0.30,,2013-03-18 22:13:00,
2013-03-18 17:23:00,41.0,36.0,29.75,West,277,8.0,14.0,82,0.00,,,0.30,,2013-03-18 22:23:00,
2013-03-18 17:33:00,41.0,36.0,29.76,WNW,283,7.0,17.0,81,0.00,,,0.30,,2013-03-18 22:33:00,
2013-03-18 17:42:00,41.0,36.0,29.76,WNW,283,7.0,17.0,81,0.00,,,0.30,,2013-03-18 22:42:00,
2013-03-18 17:53:00,41.0,36.0,29.76,WNW,283,7.0,17.0,81,0.00,,,0.30,,2013-03-18 22:53:00,
2013-03-18 18:03:00,43.0,37.0,29.77,WSW,252,6.0,12.0,80,0.00,,,0.30,,2013-03-18 23:03:00,
2013-03-18 18:12:00,43.0,37.0,29.77,WSW,252,6.0,12.0,80,0.00,,,0.30,,2013-03-18 23:12:00,
2013-03-18 18:22:00,43.0,37.0,29.77,WSW,252,6.0,12.0,80,0.00,,,0.30,,2013-03-18 23:22:00,
2013-03-18 18:32:00,43.0,37.0,29.77,WSW,249,5.0,9.0,78,0.00,,,0.29,,2013-03-18 23:32:00,
2013-03-18 18:43:00,43.0,37.0,29.77,WSW,249,5.0,9.0,78,0.00,,,0.29,,2013-03-18 23:43:00,
2013-03-18 18:53:00,43.0,37.0,29.77,WSW,249,5.0,9.0,78,0.00,,,0.29,,2013-03-18 23:53:00,
2013-03-18 19:02:00,43.0,36.0,29.78,West,260,6.0,11.0,77,0.00,,,0.29,,2013-03-19 00:02:00,
2013-03-18 19:12:00,43.0,36.0,29.78,West,260,6.0,11.0,77,0.00,,,0.29,,2013-03-19 00:12:00,
2013-03-18 19:22:00,43.0,36.0,29.78,West,260,6.0,11.0,77,0.00,,,0.29,,2013-03-19 00:22:00,
2013-03-18 19:32:00,42.0,36.0,29.79,SW,223,4.0,8.0,78,0.00,,,0.28,,2013-03-19 00:32:00,
2013-03-18 19:43:00,42.0,36.0,29.79,SW,223,4.0,8.0,78,0.00,,,0.28,,2013-03-19 00:43:00,
2013-03-18 19:52:00,42.0,36.0,29.79,SW,223,4.0,8.0,78,0.00,,,0.28,,2013-03-19 00:52:00,
2013-03-18 20:02:00,42.0,34.0,29.81,West,265,6.0,10.0,72,0.00,,,0.28,,2013-03-19 01:02:00,
2013-03-18 20:12:00,42.0,34.0,29.81,West,265,6.0,10.0,72,0.00,,,0.28,,2013-03-19 01:12:00,
2013-03-18 20:22:00,42.0,34.0,29.81,West,265,6.0,10.0,72,0.00,,,0.28,,2013-03-19 01:22:00,
2013-03-18 20:32:00,41.0,31.0,29.83,WNW,282,5.0,7.0,68,0.00,,,0.28,,2013-03-19 01:32:00,
2013-03-18 20:43:00,41.0,31.0,29.83,WNW,282,5.0,7.0,68,0.00,,,0.28,,2013-03-19 01:43:00,
2013-03-18 20:52:00,41.0,31.0,29.83,WNW,282,5.0,7.0,68,0.00,,,0.28,,2013-03-19 01:52:00,
2013-03-18 21:02:00,40.0,30.0,29.84,WNW,283,5.0,12.0,68,0.00,,,0.28,,2013-03-19 02:02:00,
2013-03-18 21:12:00,40.0,30.0,29.84,WNW,283,5.0,12.0,68,0.00,,,0.28,,2013-03-19 02:12:00,
2013-03-18 21:22:00,40.0,30.0,29.84,WNW,283,5.0,12.0,68,0.00,,,0.28,,2013-03-19 02:22:00,
2013-03-18 21:32:00,39.0,29.0,29.86,WNW,282,7.0,11.0,67,0.00,,,0.24,,2013-03-19 02:32:00,
2013-03-18 21:43:00,39.0,29.0,29.86,WNW,282,7.0,11.0,67,0.00,,,0.24,,2013-03-19 02:43:00,
2013-03-18 21:53:00,39.0,29.0,29.86,WNW,282,7.0,11.0,67,0.00,,,0.24,,2013-03-19 02:53:00,
2013-03-18 22:02:00,37.0,28.0,29.88,WNW,296,8.0,15.0,71,0.00,,,0.24,,2013-03-19 03:02:00,
2013-03-18 22:12:00,37.0,28.0,29.88,WNW,296,8.0,15.0,71,0.00,,,0.24,,2013-03-19 03:12:00,
2013-03-18 22:22:00,37.0,28.0,29.88,WNW,296,8.0,15.0,71,0.00,,,0.24,,2013-03-19 03:22:00,
2013-03-18 22:33:00,34.0,28.0,29.91,WNW,287,6.0,13.0,78,0.00,,,0.20,,2013-03-19 03:33:00,
2013-03-18 22:43:00,34.0,28.0,29.91,WNW,287,6.0,13.0,78,0.00,,,0.20,,2013-03-19 03:43:00,
2013-03-18 22:54:00,34.0,28.0,29.91,WNW,287,6.0,13.0,78,0.00,,,0.20,,2013-03-19 03:54:00,
2013-03-18 23:03:00,33.0,27.0,29.93,WNW,292,7.0,14.0,79,0.00,,,0.20,,2013-03-19 04:03:00,
2013-03-18 23:13:00,33.0,27.0,29.93,WNW,292,7.0,14.0,79,0.00,,,0.20,,2013-03-19 04:13:00,
2013-03-18 23:23:00,33.0,27.0,29.93,WNW,292,7.0,14.0,79,0.00,,,0.20,,2013-03-19 04:23:00,
2013-03-18 23:33:00,32.0,26.0,29.94,WNW,290,7.0,15.0,77,0.00,,,0.17,,2013-03-19 04:33:00,
2013-03-18 23:43:00,32.0,26.0,29.94,WNW,290,7.0,15.0,77,0.00,,,0.17,,2013-03-19 04:43:00,
2013-03-18 23:53:00,32.0,26.0,29.94,WNW,290,7.0,15.0,77,0.00,,,0.17,,2013-03-19 04:53:00,